******************************************************************************* JPL/HORIZONS 173P/Mueller 5 2025-Dec-12 17:49:17 Rec #:90001119 (+COV) Soln.date: 2023-Jun-30_22:18:07 # obs: 1194 (1992-2023) IAU76/J2000 helio. ecliptic osc. elements (au, days, deg., period=Julian yrs): EPOCH= 2455978.5 ! 2012-Feb-21.0000000 (TDB) RMSW= n.a. EC= .2613563901885501 QR= 4.203776640327578 TP= 2454602.1468112711 OM= 100.4965039957018 W= 29.39332259246867 IN= 16.50550844423612 A= 5.691211004181917 MA= 99.9141357048625 ADIST= 7.178645368036256 PER= 13.577356881898 N= .072593384 ANGMOM= .039611397 DAN= 4.31898 DDN= 6.86591 L= 128.8701883 B= 8.0154777 MOID= 3.23052001 TP= 2008-May-15.6468112711 Comet physical (GM= km^3/s^2; RAD= km): GM= n.a. RAD= n.a. M1= 12.1 M2= n.a. k1= 4.5 k2= n.a. PHCOF= n.a. COMET comments 1: soln ref.= JPL#113, data arc: 1992-09-25 to 2023-06-20 2: k1=4.5; ******************************************************************************* ******************************************************************************* Ephemeris / WWW_USER Fri Dec 12 17:49:17 2025 Pasadena, USA / Horizons ******************************************************************************* Target body name: 173P/Mueller 5 {source: JPL#113} Center body name: Earth (399) {source: DE441} Center-site name: GEOCENTRIC ******************************************************************************* Start time : A.D. 2035-Aug-27 00:00:00.0000 UT Stop time : A.D. 2035-Aug-31 00:00:00.0000 UT Step-size : 180 minutes ******************************************************************************* Target pole/equ : undefined Target radii : undefined Center geodetic : 0.0, 0.0, -6378.137 {E-lon(deg),Lat(deg),Alt(km)} Center cylindric: 0.0, 0.0, 0.0 {E-lon(deg),Dxy(km),Dz(km)} Center pole/equ : ITRF93 {East-longitude positive} Center radii : 6378.137, 6378.137, 6356.752 km {Equator_a, b, pole_c} Target primary : Sun Vis. interferer : MOON (R_eq= 1737.400) km {source: DE441} Rel. light bend : Sun {source: DE441} Rel. lght bnd GM: 1.3271E+11 km^3/s^2 Small-body perts: Yes {source: SB441-N16} Atmos refraction: NO (AIRLESS) RA format : HMS Time format : CAL Calendar mode : Mixed Julian/Gregorian EOP file : eop.251212.p260310 EOP coverage : DATA-BASED 1962-JAN-20 TO 2025-DEC-12. PREDICTS-> 2026-MAR-09 Units conversion: 1 au= 149597870.700 km, c= 299792.458 km/s, 1 day= 86400.0 s Table cut-offs 1: Elevation (-90.0deg=NO ),Airmass (>38.000=NO), Daylight (NO ) Table cut-offs 2: Solar elongation ( 0.0,180.0=NO ),Local Hour Angle( 0.0=NO ) Table cut-offs 3: RA/DEC angular rate ( 0.0=NO ) ******************************************************************************* Initial IAU76/J2000 heliocentric ecliptic osculating elements (au, days, deg.): EPOCH= 2455978.5 ! 2012-Feb-21.0000000 (TDB) RMSW= n.a. EC= .2613563901885501 QR= 4.203776640327578 TP= 2454602.1468112711 OM= 100.4965039957018 W= 29.39332259246867 IN= 16.50550844423612 Equivalent ICRF heliocentric cartesian coordinates (au, au/d): X=-1.341712366099691E+00 Y=-5.883397850645283E+00 Z=-1.765762332180735E+00 VX= 5.564452884232358E-03 VY=-2.178392780336517E-03 VZ=-2.534606353463971E-03 Comet physical (GM= km^3/s^2; RAD= km): GM= n.a. RAD= n.a. M1= 12.1 M2= n.a. k1= 4.5 k2= n.a. PHCOF= n.a. ******************************************************************************* Date__(UT)__HR:MN r rdot ************************************************** $$SOE 2035-Aug-27 00:00 4.249493427731 -0.0166193 2035-Aug-27 03:00 4.249492261349 -0.0156923 2035-Aug-27 06:00 4.249491161895 -0.0147653 2035-Aug-27 09:00 4.249490129368 -0.0138382 2035-Aug-27 12:00 4.249489163770 -0.0129112 2035-Aug-27 15:00 4.249488265099 -0.0119842 2035-Aug-27 18:00 4.249487433358 -0.0110571 2035-Aug-27 21:00 4.249486668544 -0.0101301 2035-Aug-28 00:00 4.249485970660 -0.0092030 2035-Aug-28 03:00 4.249485339705 -0.0082760 2035-Aug-28 06:00 4.249484775679 -0.0073489 2035-Aug-28 09:00 4.249484278583 -0.0064219 2035-Aug-28 12:00 4.249483848416 -0.0054948 2035-Aug-28 15:00 4.249483485180 -0.0045677 2035-Aug-28 18:00 4.249483188873 -0.0036407 2035-Aug-28 21:00 4.249482959496 -0.0027136 2035-Aug-29 00:00 4.249482797050 -0.0017865 2035-Aug-29 03:00 4.249482701535 -0.0008595 2035-Aug-29 06:00 4.249482672950 0.0000676 2035-Aug-29 09:00 4.249482711295 0.0009947 2035-Aug-29 12:00 4.249482816572 0.0019217 2035-Aug-29 15:00 4.249482988780 0.0028488 2035-Aug-29 18:00 4.249483227919 0.0037759 2035-Aug-29 21:00 4.249483533989 0.0047030 2035-Aug-30 00:00 4.249483906991 0.0056301 2035-Aug-30 03:00 4.249484346924 0.0065571 2035-Aug-30 06:00 4.249484853789 0.0074842 2035-Aug-30 09:00 4.249485427585 0.0084113 2035-Aug-30 12:00 4.249486068313 0.0093384 2035-Aug-30 15:00 4.249486775973 0.0102655 2035-Aug-30 18:00 4.249487550565 0.0111925 2035-Aug-30 21:00 4.249488392089 0.0121196 2035-Aug-31 00:00 4.249489300544 0.0130467 $$EOE ******************************************************************************* Column meaning: TIME Times PRIOR to 1962 are UT1, a mean-solar time closely related to the prior but now-deprecated GMT. Times AFTER 1962 are in UTC, the current civil or "wall-clock" time-scale. UTC is kept within 0.9 seconds of UT1 using integer leap-seconds for 1972 and later years. Conversion from the internal Barycentric Dynamical Time (TDB) of solar system dynamics to the non-uniform civil UT time-scale requested for output has not been determined for UTC times after the next July or January 1st. Therefore, the last known leap-second is used as a constant over future intervals. Time tags refer to the UT time-scale conversion from TDB on Earth regardless of observer location within the solar system, although clock rates may differ due to the local gravity field and no analog to "UT" may be defined for that location. Any 'b' symbol in the 1st-column denotes a B.C. date. First-column blank (" ") denotes an A.D. date. CALENDAR SYSTEM Mixed calendar mode was active such that calendar dates after AD 1582-Oct-15 (if any) are in the modern Gregorian system. Dates prior to 1582-Oct-5 (if any) are in the Julian calendar system, which is automatically extended for dates prior to its adoption on 45-Jan-1 BC. The Julian calendar is useful for matching historical dates. The Gregorian calendar more accurately corresponds to the Earth's orbital motion and seasons. A "Gregorian-only" calendar mode is available if such physical events are the primary interest. NOTE: "n.a." in output means quantity "not available" at the print-time. 'r rdot' = The Sun's apparent range ("r", light-time aberrated) and range-rate ("rdot") relative to the target center, as seen by the observer. A positive "rdot" means the target center was moving away from the Sun, negative means moving toward the Sun. Units: AU and KM/S Computations by ... Solar System Dynamics Group, Horizons On-Line Ephemeris System 4800 Oak Grove Drive, Jet Propulsion Laboratory Pasadena, CA 91109 USA General site: https://ssd.jpl.nasa.gov/ Mailing list: https://ssd.jpl.nasa.gov/email_list.html System news : https://ssd.jpl.nasa.gov/horizons/news.html User Guide : https://ssd.jpl.nasa.gov/horizons/manual.html Connect : browser https://ssd.jpl.nasa.gov/horizons/app.html#/x API https://ssd-api.jpl.nasa.gov/doc/horizons.html command-line telnet ssd.jpl.nasa.gov 6775 e-mail/batch https://ssd.jpl.nasa.gov/ftp/ssd/horizons_batch.txt scripts https://ssd.jpl.nasa.gov/ftp/ssd/SCRIPTS Author : Jon.D.Giorgini@jpl.nasa.gov ******************************************************************************* !$$SOF COMMAND = '173P' QUANTITIES = '19' START_TIME = '2035-Aug-27' STEP_SIZE = '3 hours' STOP_TIME = '2035-Aug-31'